Location: Unspecified
(38.7200°N, 0.0000°E)
Time: 13:36:05
(UTC+00:00)

SL-16 DEB - Visible Passes

Search period start: 04 April 2026 00:00
Search period end: 14 April 2026 00:00
Orbit: 807 x 824 km, 71.0° (Epoch: 27 March)

Date Brightness Start Highest point End Pass type
(mag) Time Alt. Az. Time Alt. Az. Time Alt. Az.
4 Apr ? 03:15:47 10° N 03:20:38 30° ENE 03:25:27 10° ESE visible
4 Apr ? 04:59:07 10° NW 05:04:05 35° WSW 05:09:01 10° SSW visible
4 Apr ? 19:45:53 10° W 19:49:27 17° NW 19:53:02 10° NNW visible
5 Apr ? 02:52:55 10° N 02:57:27 25° ENE 03:01:56 10° ESE visible
5 Apr ? 04:35:52 10° NW 04:41:04 44° WSW 04:46:15 10° S visible
5 Apr ? 19:22:08 10° WSW 19:26:13 21° NW 19:30:20 10° N visible
6 Apr ? 02:30:07 10° N 02:34:15 21° NE 02:38:19 10° ESE visible
6 Apr ? 04:12:39 10° NNW 04:18:04 55° WSW 04:23:23 10° S visible
6 Apr ? 18:58:30 10° WSW 19:03:00 25° WNW 19:07:31 10° N visible
7 Apr ? 02:07:24 10° NNE 02:11:00 17° NE 02:14:35 10° E visible
7 Apr ? 03:49:30 10° NNW 03:55:00 69° WSW 04:00:27 10° SSE visible
8 Apr ? 01:44:49 10° NNE 01:47:45 14° NE 01:50:39 10° E visible
8 Apr ? 03:26:23 10° NNW 03:31:57 85° WSW 03:37:26 10° SSE visible
9 Apr ? 01:22:31 10° NNE 01:24:27 12° NE 01:26:23 10° ENE visible
9 Apr ? 03:03:19 10° NNW 03:08:52 78° ENE 03:14:21 10° SSE visible
9 Apr ? 04:49:29 10° WNW 04:51:31 12° W 04:53:34 10° WSW visible
10 Apr ? 02:40:15 10° NNW 02:45:45 63° ENE 02:46:42 54° ESE visible
10 Apr ? 04:25:26 10° WNW 04:27:46 15° W 04:27:46 15° W visible
11 Apr ? 02:17:14 10° NNW 02:22:10 50° NE 02:22:10 50° NE visible
11 Apr ? 04:01:46 10° NW 04:03:18 15° WNW 04:03:18 15° WNW visible
12 Apr ? 01:54:15 10° N 01:58:20 37° NNE 01:58:20 37° NNE visible
12 Apr ? 03:38:16 10° NW 03:39:30 15° WNW 03:39:30 15° WNW visible
13 Apr ? 01:31:19 10° N 01:34:50 29° NNE 01:34:50 29° NNE visible
13 Apr ? 03:14:53 10° NW 03:16:01 15° NW 03:16:01 15° NW visible
